Regional & State Weather Roundups


230 
ASUS43 KFSD 151710
RWRSD 
WEATHER ROUNDUP FOR SOUTH DAKOTA
NATIONAL WEATHER SERVICE SIOUX FALLS SD
1200 PM CDT MON OCT 15 2018
NOTE: "FAIR" INDICATES FEW OR NO CLOUDS BELOW 12,000 FEET WITH NO
SIGNIFICANT WEATHER AND/OR OBSTRUCTIONS TO VISIBILITY.
SDZ001>005-009-010-012>017-151800-
NORTHWEST AND NORTH CENTRAL SOUTH DAKOTA
  
CITY           SKY/WX    TMP DP  RH WIND       PRES   REMARKS
BUFFALO          N/A     42  19  39 W24       30.09F                  
FAITH            N/A     43  25  49 W16       30.15F                  
MOBRIDGE       SUNNY     42  26  53 SW13      30.12F                  
$$
 
SDZ012>016-024>037-041>051-057-063-072>074-151800-
SOUTHWEST AND SOUTH CENTRAL SOUTH DAKOTA
  
CITY           SKY/WX    TMP DP  RH WIND       PRES   REMARKS
RAPID CTY ARPT SUNNY     41  23  48 S9        30.22F                  
PIERRE         SUNNY     40  23  50 SW13      30.22F                  
CUSTER         SUNNY     31  15  52 W13G25    30.20F WCI  21          
ELLSWORTH AFB  SUNNY     42  23  46 S7        30.20F                  
PHILIP         SUNNY     41  24  51 SW17      30.24F                  
PINE RIDGE     SUNNY     33  22  63 SW15      30.29F WCI  23          
SPEARFISH      PTSUNNY   41  18  38 W20G28    30.19F                  
WINNER         FAIR      39  24  55 SW10      30.28S                  
$$
 
SDZ004>011-016>023-039-040-151800-
NORTHEAST SOUTH DAKOTA
  
CITY           SKY/WX    TMP DP  RH WIND       PRES   REMARKS
ABERDEEN       SUNNY     41  21  44 SW16G25   30.18F                  
WATERTOWN      SUNNY     37  22  54 W14       30.19F                  
BROOKINGS      SUNNY     39  23  52 W15       30.24S                  
SISSETON         N/A     41  21  44 W13       30.16F                  
$$
 
SDZ017-020-022-023-036>040-048>070-151800-
SOUTHEAST SOUTH DAKOTA
  
CITY           SKY/WX    TMP DP  RH WIND       PRES   REMARKS
SIOUX FALLS    SUNNY     38  26  62 W10       30.29R                  
HURON          SUNNY     42  20  41 W15G21    30.26F                  
CHAMBERLAIN    SUNNY     43  24  47 W12       30.27F                  
MITCHELL       SUNNY     41  22  46 W15       30.29F                  
YANKTON        SUNNY     38  24  57 W14       30.33S                  
$$
 
ABBREVIATIONS USED IN REMARKS
   TC - TEMPERATURE IN CELSIUS
  WCI - WIND CHILL INDEX
   HX - HEAT INDEX
  VSB - VISIBILITY
  

231 
ASUS43 KFSD 151710
RWRFSD
WEATHER ROUNDUP FOR SE SOUTH DAKOTA/SW MINNESOTA/NW IOWA
NATIONAL WEATHER SERVICE SIOUX FALLS SD
1200 PM CDT MON OCT 15 2018
NOTE: "FAIR" INDICATES FEW OR NO CLOUDS BELOW 12,000 FEET WITH NO
SIGNIFICANT WEATHER AND OR OBSTRUCTIONS TO VISIBILITY.
SDZ038>040-050-052>070-151800-
SOUTHEAST SOUTH DAKOTA
  
CITY           SKY/WX    TMP DP  RH WIND       PRES   REMARKS
BROOKINGS      SUNNY     39  23  52 W15       30.24S                  
CHAMBERLAIN    SUNNY     43  24  47 W12       30.27F                  
HURON          SUNNY     42  20  41 W15G21    30.26F                  
MADISON          N/A     36  25  64 W10       30.26S                  
MITCHELL       SUNNY     41  22  46 W15       30.29F                  
SIOUX FALLS    SUNNY     38  26  62 W10       30.29R                  
WINNER         FAIR      39  24  55 SW10      30.28S                  
YANKTON        SUNNY     38  24  57 W14       30.33S                  
$$
MNZ071-072-080-081-089-090-097-098-151800-
SOUTHWEST MINNESOTA
  
CITY           SKY/WX    TMP DP  RH WIND       PRES   REMARKS
FAIRMONT       SUNNY     37  25  61 W14       30.27S                  
JACKSON        SUNNY     36  25  64 W9G17     30.26F                  
LUVERNE        SUNNY     36  23  60 W10       30.29S                  
MARSHALL       SUNNY     40  20  44 W13       30.24F                  
MONTEVIDEO     SUNNY     39  18  41 N10       30.23F                  
PIPESTONE      SUNNY     36  25  64 NW13      30.24                   
REDWOOD FALLS  SUNNY     37  23  56 W9G20     30.24F                  
TRACY          SUNNY     40  24  52 NW10      30.24F                  
WINDOM         SUNNY     37  25  60 W10G18    30.24F                  
WORTHINGTON    SUNNY     36  22  56 W14       30.27S                  
$$
IAZ001>003-012>014-020>022-031-032-NEZ013-014-SDZ071-151800-
NORTHWEST IOWA
  
CITY           SKY/WX    TMP DP  RH WIND       PRES   REMARKS
CHEROKEE       SUNNY     41  26  56 NW12      30.32S                  
DENISON        SUNNY     41  27  56 W12       30.35S                  
ESTHERVILLE    SUNNY     37  24  59 W14       30.27S                  
ORANGE CITY    SUNNY     41  28  60 W9        30.30F                  
SIOUX CITY     SUNNY     42  26  53 NW8       30.35S                  
SPENCER        SUNNY     41  25  53 NW14G26   30.29S                  
STORM LAKE     SUNNY     39  23  52 NW16      30.30S                  
$$
 
ABBREVIATIONS USED IN REMARKS
   TC - TEMPERATURE IN CELSIUS
  WCI - WIND CHILL INDEX
   HX - HEAT INDEX
  VSB - VISIBILITY